| time (UTC) | temp C | wind direction | speed KPH | gust KPH | rain 1hr cm | rain 24hr cm | rain mn cm | humidity % | barometer mb |
| 20260503211556 | 30 | 178 | 9.7 | 17.7 | 0.00 | 0.00 | 0.00 | 30 | 1007.3 |
| 20260503210054 | 30 | 178 | 4.8 | 17.7 | 0.00 | 0.00 | 0.00 | 30 | 1007.5 |
| 20260503204611 | 29 | 177 | 14.5 | 20.9 | 0.00 | 0.00 | 0.00 | 32 | 1007.6 |
| 20260503203047 | 29 | 176 | 3.2 | 19.3 | 0.00 | 0.00 | 0.00 | 33 | 1007.9 |
| 20260503201544 | 28 | 178 | 6.4 | 19.3 | 0.00 | 0.00 | 0.00 | 37 | 1007.9 |
| 20260503200041 | 28 | 176 | 8.0 | 12.9 | 0.00 | 0.00 | 0.00 | 38 | 1008.2 |
| 20260503194541 | 28 | 177 | 3.2 | 16.1 | 0.00 | 0.00 | 0.00 | 39 | 1008.4 |
| 20260503193044 | 27 | 177 | 1.6 | 11.3 | 0.00 | 0.00 | 0.00 | 41 | 1008.5 |
| 20260503191600 | 26 | 176 | 6.4 | 17.7 | 0.00 | 0.00 | 0.00 | 41 | 1008.7 |
| 20260503190033 | 26 | 178 | 8.0 | 16.1 | 0.00 | 0.00 | 0.00 | 43 | 1008.9 |
| 20260503184525 | 25 | 176 | 6.4 | 14.5 | 0.00 | 0.00 | 0.00 | 43 | 1009.0 |
| 20260503183023 | 25 | 178 | 8.0 | 17.7 | 0.00 | 0.00 | 0.00 | 43 | 1009.1 |
| 20260503181519 | 25 | 179 | 4.8 | 17.7 | 0.00 | 0.00 | 0.00 | 47 | 1009.2 |
| 20260503180019 | 23 | 177 | 11.3 | 19.3 | 0.00 | 0.00 | 0.00 | 49 | 1009.3 |
| 20260503174514 | 23 | 176 | 6.4 | 16.1 | 0.00 | 0.00 | 0.00 | 51 | 1009.2 |
| 20260503173011 | 23 | 179 | 4.8 | 17.7 | 0.00 | 0.00 | 0.00 | 53 | 1009.3 |
| 20260503171510 | 22 | 162 | 9.7 | 22.5 | 0.00 | 0.00 | 0.00 | 52 | 1009.4 |
| 20260503160106 | 17 | 177 | 1.6 | 4.8 | 0.00 | 0.00 | 0.00 | 84 | 1009.7 |
| 20260503100105 | 12 | 150 | 0.0 | 0.0 | 0.00 | 0.00 | 0.00 | 93 | 1010.1 |
| 20260503081543 | 13 | 158 | 1.6 | 4.8 | 0.00 | 0.00 | 0.00 | 91 | 1010.5 |
| 20260503071538 | 13 | 177 | 4.8 | 8.0 | 0.00 | 0.00 | 0.00 | 90 | 1010.4 |
| 20260503054549 | 16 | 179 | 4.8 | 12.9 | 0.00 | 0.00 | 0.00 | 80 | 1010.5 |
| 20260503053033 | 15 | 147 | 4.8 | 14.5 | 0.00 | 0.00 | 0.00 | 84 | 1010.8 |
| 20260503051532 | 16 | 178 | 0.0 | 3.2 | 0.00 | 0.00 | 0.00 | 79 | 1010.3 |
| 20260503050034 | 16 | 176 | 0.0 | 9.7 | 0.00 | 0.00 | 0.00 | 78 | 1010.3 |
| 20260503044538 | 16 | 177 | 1.6 | 14.5 | 0.00 | 0.00 | 0.00 | 79 | 1010.3 |
| 20260503043038 | 16 | 159 | 9.7 | 14.5 | 0.00 | 0.00 | 0.00 | 81 | 1010.3 |
| 20260503041530 | 16 | 177 | 3.2 | 8.0 | 0.00 | 0.00 | 0.00 | 79 | 1010.7 |
| 20260503040029 | 16 | 178 | 0.0 | 6.4 | 0.00 | 0.00 | 0.00 | 78 | 1010.5 |
| 20260503034528 | 16 | 165 | 8.0 | 11.3 | 0.00 | 0.00 | 0.00 | 79 | 1010.3 |
| 20260503033027 | 16 | 178 | 8.0 | 14.5 | 0.00 | 0.00 | 0.00 | 79 | 1010.2 |
| 20260503031527 | 16 | 175 | 11.3 | 14.5 | 0.00 | 0.00 | 0.00 | 80 | 1010.1 |
| 20260503030031 | 17 | 178 | 4.8 | 8.0 | 0.00 | 0.00 | 0.00 | 78 | 1010.3 |
| 20260503024525 | 17 | 179 | 3.2 | 6.4 | 0.00 | 0.00 | 0.00 | 77 | 1010.7 |
| 20260503023025 | 17 | 179 | 11.3 | 19.3 | 0.00 | 0.00 | 0.00 | 75 | 1010.8 |
| 20260503021524 | 17 | 156 | 19.3 | 30.6 | 0.00 | 0.00 | 0.00 | 75 | 1010.7 |
| 20260503020024 | 17 | 181 | 17.7 | 24.1 | 0.00 | 0.00 | 0.00 | 76 | 1010.6 |
| 20260503014522 | 17 | 179 | 11.3 | 17.7 | 0.00 | 0.00 | 0.00 | 75 | 1010.0 |
| 20260503013034 | 18 | 180 | 9.7 | 14.5 | 0.00 | 0.00 | 0.00 | 74 | 1009.9 |
| 20260503011521 | 18 | 176 | 8.0 | 14.5 | 0.00 | 0.00 | 0.00 | 75 | 1009.9 |
| 20260503010023 | 18 | 178 | 6.4 | 9.7 | 0.00 | 0.00 | 0.00 | 74 | 1009.9 |
| 20260503004524 | 18 | 178 | 4.8 | 8.0 | 0.00 | 0.00 | 0.00 | 73 | 1009.6 |
| 20260503003019 | 18 | 148 | 4.8 | 6.4 | 0.00 | 0.00 | 0.00 | 72 | 1009.4 |
| 20260503001518 | 19 | 180 | 4.8 | 8.0 | 0.00 | 0.00 | 0.00 | 71 | 1009.5 |
| 20260503000022 | 19 | 159 | 4.8 | 8.0 | 0.00 | 0.00 | 0.00 | 70 | 1009.5 |
| 20260502234518 | 19 | 148 | 3.2 | 9.7 | 0.00 | 0.00 | 0.00 | 70 | 1009.7 |
| 20260502233028 | 21 | 181 | 0.0 | 6.4 | 0.00 | 0.00 | 0.00 | 60 | 1010.0 |
| 20260502231510 | 20 | 181 | 0.0 | 6.4 | 0.00 | 0.00 | 0.00 | 62 | 1010.2 |
| 20260502230009 | 20 | 180 | 4.8 | 9.7 | 0.00 | 0.00 | 0.00 | 62 | 1010.4 |
| 20260502224507 | 19 | 179 | 3.2 | 12.9 | 0.00 | 0.00 | 0.00 | 64 | 1010.5 |
| 20260502223005 | 18 | 168 | 6.4 | 16.1 | 0.00 | 0.00 | 0.00 | 64 | 1010.8 |
| 20260502221506 | 18 | 169 | 9.7 | 16.1 | 0.00 | 0.00 | 0.00 | 66 | 1010.9 |
| 20260502220002 | 18 | 179 | 3.2 | 11.3 | 0.00 | 0.00 | 0.00 | 65 | 1011.3 |
| 20260502214601 | 19 | 179 | 6.4 | 14.5 | 0.00 | 0.00 | 0.00 | 65 | 1011.4 |
| 20260502213058 | 19 | 179 | 0.0 | 12.9 | 0.00 | 0.00 | 0.00 | 63 | 1011.5 |